Weather History for KN60 - October, 2012

Change the Weather History Date:

Monday, October 8, 2012

  Actual Average Record
Temperature  
Mean Temperature 51 °F -  
Max Temperature 56 °F 58 °F 78 °F (2010)
Min Temperature 45 °F 33 °F 27 °F (2000)
Degree Days  
Heating Degree Days 14    
Month to date heating degree days 174  
Moisture  
Dew Point 35 °F    
Average Humidity 61    
Maximum Humidity 83    
Minimum Humidity 38    
Precipitation  
Precipitation 0.00 in - - ()
Month to date precipitation 1.36  
Year to date precipitation 14.50  
Sea Level Pressure  
Sea Level Pressure 29.69 in    
Wind  
Wind Speed 18 mph (WNW)    
Max Wind Speed 33 mph    
Max Gust Speed 41 mph    
Averages and records for this station are not official NWS values.
T = Trace of Precipitation, MM = Missing Value Source: NWS Daily Summary

Daily Weather History Graph

Daily Weather History Graph

Search for Another Location

Airport or City:

Trip Planner

Search our weather history database for the weather conditions in past years. The results will help you decide how hot, cold, wet, or windy it might be!

Date:

Astronomy

Oct. 08, 2012 Rise Set
Actual Time 7:55 AM CDT 7:10 PM CDT
Civil Twilight 7:24 AM CDT 7:40 PM CDT
Nautical Twilight 6:48 AM CDT 8:16 PM CDT
Astronomical Twilight 6:12 AM CDT 8:52 PM CDT
Moon 12:09 AM CDT (10/8) 3:26 PM CDT (10/8)
Length of Visible Light 12h 16m
Length of Day
11h 14m
Last Quarter, 46% of the Moon is Illuminated
Oct 8
Last Quarter
Oct 15
New
Oct 21
First Quarter
Oct 29
Full
Nov 6
Last Quarter

Hourly Weather History & Observations

Time (CDT) Temp. Windchill Dew Point Humidity Pressure Visibility Wind Dir Wind Speed Gust Speed Precip Events Conditions
12:52 AM 46.0 °F 41.9 °F 39.9 °F 79% 29.67 in - South 8.1 mph - N/A   Unknown
1:52 AM 46.0 °F 41.9 °F 39.9 °F 79% 29.64 in - South 8.1 mph - N/A   Unknown
2:52 AM 46.0 °F 44.8 °F 39.9 °F 79% 29.60 in - South 3.5 mph - N/A   Unknown
3:52 AM 46.9 °F - 41.0 °F 80% 29.57 in - WSW 3.5 mph - N/A   Unknown
4:52 AM 48.9 °F - 39.9 °F 71% 29.55 in - West 9.2 mph - N/A   Unknown
5:52 AM 48.0 °F - 41.0 °F 77% 29.58 in - NW 19.6 mph - N/A   Unknown
6:52 AM 46.0 °F 38.3 °F 41.0 °F 83% 29.61 in - NW 20.7 mph - N/A   Unknown
7:52 AM 45.0 °F 37.4 °F 39.9 °F 82% 29.64 in - NW 18.4 mph 27.6 mph N/A   Unknown
8:52 AM 45.0 °F 37.4 °F 39.9 °F 82% 29.66 in - NW 18.4 mph 33.4 mph N/A   Unknown
9:52 AM 46.0 °F 38.3 °F 39.9 °F 79% 29.70 in - NW 20.7 mph 31.1 mph N/A   Unknown
10:52 AM 48.9 °F - 39.9 °F 71% 29.69 in - NW 21.9 mph 36.8 mph N/A   Unknown
11:52 AM 50.0 °F - 37.9 °F 63% 29.70 in - NNW 26.5 mph 38.0 mph N/A   Unknown
12:52 PM 52.0 °F - 36.0 °F 54% 29.70 in - NW 25.3 mph 38.0 mph N/A   Unknown
1:52 PM 51.1 °F - 34.0 °F 52% 29.70 in - NW 20.7 mph 38.0 mph N/A   Unknown
2:52 PM 55.0 °F - 30.9 °F 40% 29.68 in - WNW 24.2 mph 35.7 mph N/A   Unknown
3:52 PM 52.0 °F - 30.0 °F 43% 29.70 in - NW 27.6 mph 36.8 mph N/A   Unknown
4:52 PM 50.0 °F - 28.9 °F 44% 29.71 in - NW 24.2 mph 40.3 mph N/A   Unknown
5:52 PM 48.9 °F - 28.0 °F 44% 29.73 in - NW 23.0 mph 36.8 mph N/A   Unknown
7:52 PM 45.0 °F 37.6 °F 30.9 °F 58% 29.77 in - NW 17.3 mph 29.9 mph N/A   Unknown
8:52 PM 42.1 °F 35.2 °F 30.9 °F 65% 29.79 in - WNW 12.7 mph - N/A   Unknown
9:52 PM 39.9 °F 31.1 °F 26.1 °F 58% 29.80 in - WNW 17.3 mph - N/A   Unknown
10:52 PM 37.0 °F 27.4 °F 25.0 °F 62% 29.81 in - WNW 17.3 mph - N/A   Unknown
11:52 PM 36.0 °F 26.7 °F 25.0 °F 64% 29.81 in - WNW 15.0 mph - N/A   Unknown